Home   Weather   Thessaloniki   Past weeks
Flag for Greece

Past Weather in Thessaloniki, Greece — Yesterday and Last 2 Weeks

Now
73 °F

Passing clouds.


Feels Like: 76 °F
Forecast: 76 / 59 °F
Wind: 8 mph from Northwest

Location: Thessaloniki Airport

Current Time: Oct 18, 2019 at 2:25:37 pm

Latest Report: Oct 18, 2019 at 1:50 pm


Visibility: 5 mi

Pressure: 30.09 "Hg

Humidity: 69%

Dew Point: 63 °F

Location of ThessalonikiLocation

Past Weather in Thessaloniki — Graph

°F

Thessaloniki Temperature Yesterday

Maximum temperature yesterday: 75 °F (at 4:20 pm)
Minimum temperature yesterday: 57 °F (at 3:20 am)
Average temperature yesterday: 64 °F

High & Low Weather Summary for the Past Weeks

 TemperatureHumidityPressure
High81 °F (Oct 11, 3:20 pm)100% (Oct 11, 5:20 am)30.30 "Hg (Oct 11, 5:20 am)
Low54 °F (Oct 6, 7:20 am)32% (Oct 6, 3:50 pm)29.71 "Hg (Oct 3, 5:50 pm)
Average65 °F77%30.05 "Hg
* Reported Oct 3 12:20 pm — Oct 18 12:50 pm, Thessaloniki. Weather by CustomWeather, © 2019

Note: Actual official high and low records may vary slightly from our data, if they occured in-between our weather recording intervals... More about our weather records

Advertising

Thessaloniki Weather History for the Previous 24 Hours

Scroll right to see more
 ConditionsComfort  
Time TempWeatherWind HumidityBarometerVisibility
12:50 pm
Fri, Oct 18
70 °FScattered clouds.8 mph83%30.09 "Hg4 mi
12:20 pm70 °FScattered clouds.8 mph83%30.12 "Hg4 mi
11:20 am70 °FFog.2 mph78%30.12 "Hg5 mi
10:50 am70 °FFog.No wind78%30.12 "Hg4 mi
10:20 am68 °FFog.2 mph83%30.12 "Hg4 mi
9:50 am66 °FFog.2 mph88%30.12 "Hg2 mi
9:20 am66 °FFog.2 mph88%30.12 "Hg1 mi
8:50 am64 °FFog.3 mph88%30.12 "Hg1 mi
8:20 am64 °FFog.6 mph88%30.09 "Hg1 mi
7:50 am64 °FFog.3 mph94%30.09 "Hg2 mi
7:20 am63 °FPassing clouds.No wind88%30.09 "Hg4 mi
6:50 am63 °FPassing clouds.2 mph88%30.09 "Hg5 mi
6:20 am61 °FPassing clouds.5 mph94%30.09 "Hg5 mi
5:50 am61 °FPassing clouds.3 mph94%30.09 "Hg5 mi
5:20 am61 °FPassing clouds.6 mph94%30.09 "Hg5 mi
4:50 am61 °FPassing clouds.5 mph94%30.09 "Hg5 mi
4:20 am61 °FPassing clouds.6 mph94%30.09 "Hg5 mi
3:50 am61 °FPassing clouds.6 mph94%30.09 "HgN/A
3:20 am61 °FPassing clouds.6 mph94%30.09 "HgN/A
2:50 am61 °FPassing clouds.6 mph94%30.09 "HgN/A
2:20 am61 °FPassing clouds.6 mph94%30.09 "HgN/A
1:50 am61 °FPassing clouds.5 mph94%30.09 "HgN/A
1:20 am61 °FPassing clouds.3 mph94%30.09 "HgN/A
12:50 am63 °FPassing clouds.3 mph88%30.09 "HgN/A
12:20 am63 °FPassing clouds.5 mph88%30.09 "HgN/A
11:20 pm
Thu, Oct 17
63 °FPassing clouds.5 mph88%30.09 "HgN/A
10:50 pm63 °FPassing clouds.3 mph88%30.09 "HgN/A
10:20 pm63 °FPassing clouds.5 mph88%30.09 "HgN/A
9:50 pm63 °FPassing clouds.3 mph88%30.09 "HgN/A
9:20 pm64 °FPassing clouds.3 mph83%30.09 "HgN/A
8:50 pm66 °FPassing clouds.3 mph78%30.09 "HgN/A
8:20 pm66 °FPassing clouds.3 mph78%30.07 "HgN/A
7:50 pm70 °FPassing clouds.3 mph69%30.07 "HgN/A
7:20 pm68 °FPassing clouds.3 mph78%30.07 "HgN/A
5:20 pm73 °FPassing clouds.6 mph69%30.07 "HgN/A
4:50 pm75 °FPassing clouds.5 mph65%30.07 "HgN/A
4:20 pm75 °FPassing clouds.6 mph65%30.07 "HgN/A
3:50 pm73 °FPassing clouds.6 mph69%30.07 "HgN/A
3:20 pm73 °FPassing clouds.5 mph69%30.07 "HgN/A
2:50 pm73 °FPassing clouds.7 mph74%30.09 "HgN/A
2:20 pm72 °FPassing clouds.8 mph73%30.09 "HgN/A
Weather by CustomWeather, © 2019

See weather overview